Date,TemperatureHighF,TemperatureAvgF,TemperatureLowF,DewpointHighF,DewpointAvgF,DewpointLowF,HumidityHigh,HumidityAvg,HumidityLow,PressureMaxIn,PressureMinIn,WindSpeedMaxMPH,WindSpeedAvgMPH,GustSpeedMaxMPH,PrecipitationSumIn
2013-2-1,29,26,24,26,23,21,91,88,86,29.94,29.64,3,0,5,0.00
2013-2-2,44,30,24,36,26,21,93,84,68,29.64,29.33,8,2,10,0.00
2013-2-3,36,33,30,30,27,25,86,79,72,29.44,29.20,11,2,11,0.00
2013-2-4,41,37,29,31,29,25,86,72,63,29.59,29.44,17,5,19,0.00
2013-2-5,40,28,18,27,19,12,79,69,58,29.57,29.44,6,1,9,0.00
2013-2-6,29,25,18,25,20,12,87,83,78,29.59,29.42,2,0,2,0.00
2013-2-7,34,26,21,25,20,16,89,79,66,29.57,29.23,9,2,10,0.00
2013-2-8,34,28,24,28,22,16,87,78,66,29.72,29.33,4,1,6,0.00
2013-2-9,46,39,29,34,30,24,80,71,60,29.67,28.97,19,7,19,0.00
2013-2-10,41,38,33,34,32,30,91,79,71,29.44,28.93,17,5,21,0.00
2013-2-11,33,28,19,30,23,14,91,81,66,29.72,29.44,5,1,6,0.00
2013-2-12,30,25,20,23,20,15,85,79,73,29.72,29.66,7,1,8,0.00
2013-2-13,40,30,22,29,22,18,88,75,60,29.78,29.61,10,2,10,0.00
2013-2-14,40,36,32,30,26,21,86,67,57,29.61,29.15,15,3,16,0.00
2013-2-15,33,30,25,29,26,20,86,84,76,29.86,29.45,4,0,6,0.00
2013-2-16,31,25,21,22,19,16,85,78,66,29.97,29.73,4,0,5,0.00
2013-2-17,28,24,19,23,19,15,88,83,76,29.73,29.52,10,2,10,0.00
2013-2-18,30,17,5,18,10,-1,84,75,54,29.85,29.70,7,1,7,0.00
2013-2-19,16,8,0,11,2,-5,82,78,73,29.82,29.25,2,0,2,0.00
2013-2-20,31,20,15,22,14,10,84,78,66,29.25,29.01,3,0,3,0.00
2013-2-21,37,23,15,25,16,10,84,74,56,29.21,29.05,4,0,5,0.00
2013-2-22,30,24,19,22,18,13,83,78,71,29.39,29.14,6,1,7,0.00
2013-2-23,38,23,16,28,17,11,84,77,61,29.36,29.08,10,1,10,0.00
2013-2-24,39,28,20,28,20,15,84,74,60,29.59,29.29,8,2,8,0.00
2013-2-25,48,30,22,28,18,13,71,60,42,29.62,29.52,12,4,12,0.00
2013-2-26,52,35,29,26,17,14,65,50,32,29.52,29.27,10,4,10,0.00
2013-2-27,44,33,29,33,20,14,73,59,47,29.27,29.15,13,5,16,0.00
2013-2-28,40,32,26,27,21,18,79,63,49,29.33,29.23,6,1,6,0.00